Flag for U.S.A. Weather past 2 weeks in Columbia, South Carolina, U.S.A.

Now
80 °F

Scattered clouds.


Feels Like: 82 °F
Forecast: 77 / 94 °F
Wind: No wind

Location: Columbia Owens Downtown Airport

Current Time: Jul 31, 2015 at 8:29:49 AM

Latest Report: Jul 31, 2015 at 7:53 AM


Visibility: 10 mi

Pressure: 29.95 "Hg

Humidity: 62%

Dew point: 66 °F

Location of ColumbiaLocation

Historic Weather in Columbia — Graph

°F

Columbia temperature yesterday

Maximum temperature yesterday: 95 °F (at 1:53 PM)
Minimum temperature yesterday: 78 °F (at 5:53 AM)
Average temperature yesterday: 84 °F

Past Weeks' High & Low Weather Summary

 TemperatureHumidityPressure
High101 °F (Jul 21, 4:53 PM)94% (Jul 18, 9:53 PM)30.07 "Hg (Jul 18, 9:53 PM)
Low70 °F (Jul 26, 5:53 AM)25% (Jul 22, 4:53 PM)29.72 "Hg (Jul 21, 5:53 PM)
Average85 °F64%29.93 "Hg
* Reported Jul 16 6:53 AM — Jul 31 6:53 AM, Columbia, Weather by CustomWeather, © 2015

Note: Actual official high and low records may vary slightly from our data, if they occured in-between our weather recording intervals... More about our weather records

Advertising

Columbia weather history for previous 24 hours

 ConditionsComfort  
Time TempWeatherWind HumidityBarometerVisibility
6:53 AM
Fri, Jul 31
80 °FPassing clouds.No wind71%29.93 "Hg10 mi
5:53 AM81 °FPassing clouds.5 mph74%29.91 "Hg10 mi
4:53 AM80 °FOvercast.3 mph85%29.90 "Hg10 mi
3:53 AM79 °FPassing clouds.No wind88%29.88 "Hg10 mi
2:53 AM79 °FPassing clouds.3 mph88%29.90 "Hg9 mi
1:53 AM79 °FClear.No wind88%29.90 "Hg10 mi
12:53 AM79 °FPassing clouds.No wind88%29.91 "Hg10 mi
11:53 PM
Thu, Jul 30
81 °FClear.No wind85%29.91 "Hg10 mi
10:53 PM81 °FClear.No wind85%29.91 "Hg10 mi
9:53 PM82 °FClear.No wind82%29.90 "Hg10 mi
8:53 PM84 °FSunny.No wind77%29.88 "Hg10 mi
7:53 PM87 °FSunny.5 mph67%29.87 "Hg10 mi
6:53 PM87 °FSunny.5 mph65%29.86 "Hg10 mi
5:53 PM89 °FSunny.5 mph61%29.87 "Hg10 mi
4:53 PM87 °FSunny.3 mph67%29.88 "Hg10 mi
3:53 PM82 °FScattered clouds.No wind82%29.89 "Hg10 mi
2:56 PM87 °FHeavy rain. Partly sunny.13 mph63%29.93 "Hg2 mi
1:53 PM95 °FBroken clouds.N/A44%29.92 "Hg10 mi
12:53 PM94 °FSunny.6 mph48%29.95 "Hg10 mi
11:53 AM91 °FSunny.No wind54%29.97 "Hg10 mi
10:53 AM88 °FSunny.3 mph59%29.97 "Hg10 mi
9:53 AM86 °FScattered clouds.No wind63%29.97 "Hg10 mi
8:53 AM83 °FPartly sunny.3 mph70%29.97 "Hg10 mi
Weather by CustomWeather, © 2015

See weather overviewHow to use our weather pages